Torna al catalogo

WESTFORD NEEDLES

AttivoPO
NORAD 2375·DEBRIS·🇺🇸 United States

Lanciato May 9, 1963 da Vandenberg Space Force Base

Loading…

Prossimi Passaggi (prossime 24 ore)

TLE

AggiornatoSource: Space-Track

Epoca: Sep 12, 2026, 09:15 UTC

1 02375U 63014W   26255.38601980  .00000079  00000-0  77164-2 0  9999
2 02375  86.6028  40.7215 1628476  79.9612 298.0369  8.74988249379056

Traccia WESTFORD NEEDLES in tempo reale con AllMySat

Download on the App Store